Location: Bennemühlen
(52.5740°N, 9.7135°E)
Time: 21:15:50
(UTC+00:00)

Tiros 1 despin weight - Pass Details

Date: 17 February 2026
Orbit: 556 x 593 km, 48.2° (Epoch: 8 March)

Event Time Altitude Azimuth Distance (km) Brightness Sun altitude
Rises 20:25:55 0° 273° (W) 2,737 ? -34.4°
Enters shadow 20:28:33 - 253° (WSW) 1,955 ? -34.8°
Reaches altitude 10° 20:29:03 10° 248° (WSW) 1,841 - -34.8°
Maximum altitude 20:31:17 14° 216° (SW) 1,593 - -35.1°
Drops below altitude 10° 20:33:30 10° 184° (S) 1,844 - -35.4°
Sets 20:36:40 0° 159° (SSE) 2,743 - -35.8°
